GORIZONT 3 [-]

Last updated on Wed Jun 28 2023 00:02:54 GMT+0000 (Coordinated Universal Time)

1 11648U 79105A 23177.68815910 -.00000329 00000+0 00000+0 0 9993 2 11648 8.5668 299.0397 0013584 218.7304 113.1623 1.00256189111563
UTC large
Height (km)
Speed (km/s)
/
Latitude / Longitude
Inclination (degrees)
Orbital Period (minutes)
Azimuth
Elevation
Range (km)
Doppler Factor

Next 0 passes for location: London (51.5072 / 0.1276)

Sorry there are no passes over London.
GORIZONT 3 [-]